TimeCST,TemperatureF,Dew PointF,Humidity,Sea Level PressureIn,VisibilityMPH,Wind Direction,Wind SpeedMPH,Gust SpeedMPH,PrecipitationIn,Events,Conditions,WindDirDegrees,DateUTC
12:15 AM,29.3,27.1,92,29.86,1.5,Calm,Calm,-,N/A,,Overcast,0,2012-12-29 06:15:00
12:35 AM,29.3,27.1,92,29.86,1.5,NW,3.5,-,0.03,,Overcast,310,2012-12-29 06:35:00
12:55 AM,29.1,27.0,92,29.85,2.5,WNW,5.8,-,0.04,,Overcast,300,2012-12-29 06:55:00
1:15 AM,29.1,27.0,92,29.85,2.5,NW,4.6,-,N/A,,Overcast,310,2012-12-29 07:15:00
1:35 AM,29.1,27.0,92,29.85,2.0,WNW,3.5,-,N/A,Snow,Light Snow,300,2012-12-29 07:35:00
1:55 AM,28.9,26.6,91,29.85,2.0,WNW,4.6,-,N/A,Snow,Light Snow,300,2012-12-29 07:55:00
2:15 AM,28.9,26.6,91,29.86,2.0,WNW,5.8,-,N/A,Snow,Light Snow,290,2012-12-29 08:15:00
2:35 AM,28.8,26.6,92,29.86,2.5,WNW,9.2,-,N/A,Snow,Light Snow,290,2012-12-29 08:35:00
2:55 AM,28.4,26.4,92,29.86,1.8,WNW,6.9,-,N/A,,Overcast,300,2012-12-29 08:55:00
3:15 AM,28.4,26.4,92,29.86,1.8,WNW,4.6,-,N/A,Snow,Light Snow,300,2012-12-29 09:15:00
3:35 AM,28.6,26.6,92,29.86,1.8,NW,9.2,-,N/A,Snow,Light Snow,320,2012-12-29 09:35:00
3:55 AM,28.0,25.7,91,29.86,2.5,NW,9.2,-,N/A,Snow,Light Snow,320,2012-12-29 09:55:00
4:15 AM,27.9,25.7,92,29.87,2.5,NW,9.2,-,N/A,Snow,Light Snow,310,2012-12-29 10:15:00
4:35 AM,27.1,24.8,91,29.87,2.5,NW,11.5,-,N/A,Snow,Light Snow,310,2012-12-29 10:35:00
4:55 AM,26.6,24.4,92,29.87,2.5,WNW,11.5,-,N/A,Snow,Light Snow,300,2012-12-29 10:55:00
5:15 AM,26.6,24.3,91,29.88,2.0,WNW,15.0,-,N/A,Snow,Light Snow,300,2012-12-29 11:15:00
5:35 AM,25.5,23.0,90,29.88,2.0,NW,16.1,20.7,N/A,Snow,Light Snow,310,2012-12-29 11:35:00
5:55 AM,24.8,23.0,93,29.89,3.0,WNW,13.8,-,N/A,Snow,Light Snow,300,2012-12-29 11:55:00
6:15 AM,24.3,21.7,90,29.90,3.0,NW,13.8,19.6,N/A,Snow,Light Snow,310,2012-12-29 12:15:00
6:35 AM,23.7,21.2,90,29.90,3.0,NW,15.0,-,N/A,Snow,Light Snow,310,2012-12-29 12:35:00
6:55 AM,23.4,20.8,90,29.90,4.0,NW,13.8,-,N/A,Snow,Light Snow,310,2012-12-29 12:55:00
7:15 AM,22.6,20.1,90,29.91,5.0,NW,13.8,18.4,N/A,Snow,Light Snow,310,2012-12-29 13:15:00
7:35 AM,22.1,19.4,89,29.91,4.0,NW,12.7,17.3,N/A,Snow,Light Snow,320,2012-12-29 13:35:00
7:55 AM,21.4,18.9,90,29.93,3.0,WNW,20.7,-,N/A,Snow,Light Snow,300,2012-12-29 13:55:00
8:15 AM,21.6,19.0,90,29.93,4.0,WNW,12.7,-,N/A,,Overcast,300,2012-12-29 14:15:00
8:35 AM,22.1,19.4,89,29.93,5.0,WNW,15.0,21.9,N/A,Snow,Light Snow,290,2012-12-29 14:35:00
8:55 AM,22.6,19.4,87,29.94,7.0,WNW,15.0,19.6,N/A,,Overcast,290,2012-12-29 14:55:00
9:15 AM,23.0,19.9,88,29.94,7.0,WNW,15.0,18.4,N/A,,Overcast,290,2012-12-29 15:15:00
9:35 AM,23.5,20.1,87,29.95,10.0,WNW,17.3,23.0,N/A,,Overcast,290,2012-12-29 15:35:00
9:55 AM,23.9,20.3,86,29.96,10.0,WNW,13.8,-,N/A,,Overcast,300,2012-12-29 15:55:00
10:15 AM,23.9,20.3,86,29.96,10.0,WNW,17.3,24.2,N/A,,Overcast,300,2012-12-29 16:15:00
10:35 AM,24.3,20.5,85,29.96,10.0,WNW,17.3,23.0,N/A,,Overcast,290,2012-12-29 16:35:00
10:55 AM,24.8,21.0,86,29.96,10.0,WNW,17.3,-,N/A,,Overcast,290,2012-12-29 16:55:00
11:15 AM,24.8,21.2,86,29.96,10.0,West,18.4,-,N/A,,Overcast,280,2012-12-29 17:15:00
11:35 AM,24.8,21.0,86,29.96,10.0,WNW,21.9,-,N/A,,Overcast,290,2012-12-29 17:35:00
11:55 AM,24.8,20.8,85,29.97,10.0,WNW,16.1,-,N/A,,Overcast,290,2012-12-29 17:55:00
12:15 PM,24.8,20.7,84,29.96,10.0,WNW,19.6,-,N/A,,Overcast,290,2012-12-29 18:15:00
12:35 PM,24.6,20.3,84,29.97,10.0,WNW,19.6,26.5,N/A,,Overcast,290,2012-12-29 18:35:00
12:55 PM,24.6,20.3,84,29.97,10.0,WNW,19.6,23.0,N/A,,Overcast,300,2012-12-29 18:55:00
1:15 PM,24.3,19.8,83,29.98,10.0,WNW,21.9,27.6,N/A,,Overcast,300,2012-12-29 19:15:00
1:35 PM,24.1,19.9,84,29.98,10.0,WNW,20.7,-,N/A,,Overcast,290,2012-12-29 19:35:00
1:55 PM,23.9,19.9,85,29.99,10.0,WNW,18.4,23.0,N/A,,Overcast,290,2012-12-29 19:55:00
2:15 PM,23.9,19.9,85,30.00,10.0,WNW,16.1,23.0,N/A,,Overcast,290,2012-12-29 20:15:00
2:35 PM,23.9,19.8,84,30.01,10.0,WNW,19.6,23.0,N/A,,Overcast,290,2012-12-29 20:35:00
2:55 PM,23.4,18.9,83,30.02,10.0,WNW,18.4,-,N/A,,Overcast,290,2012-12-29 20:55:00
3:15 PM,22.6,18.5,84,30.03,10.0,West,21.9,26.5,N/A,,Overcast,280,2012-12-29 21:15:00
3:35 PM,21.9,17.6,83,30.04,10.0,West,21.9,27.6,N/A,,Overcast,280,2012-12-29 21:35:00
3:55 PM,21.6,17.4,84,30.05,10.0,WNW,20.7,26.5,N/A,,Overcast,290,2012-12-29 21:55:00
4:15 PM,21.2,17.2,85,30.06,10.0,West,23.0,-,N/A,,Overcast,280,2012-12-29 22:15:00
4:35 PM,21.2,17.1,84,30.07,10.0,WNW,18.4,24.2,N/A,,Overcast,290,2012-12-29 22:35:00
4:55 PM,21.2,17.1,84,30.07,10.0,WNW,17.3,-,N/A,,Overcast,290,2012-12-29 22:55:00
5:15 PM,21.2,17.2,85,30.08,10.0,WNW,15.0,19.6,N/A,,Overcast,290,2012-12-29 23:15:00
5:35 PM,21.0,16.7,83,30.09,10.0,WNW,17.3,-,N/A,,Overcast,290,2012-12-29 23:35:00
5:55 PM,20.8,16.5,83,30.10,10.0,WNW,16.1,21.9,N/A,,Overcast,300,2012-12-29 23:55:00
6:15 PM,20.3,15.8,83,30.11,10.0,West,18.4,-,N/A,,Overcast,280,2012-12-30 00:15:00
6:35 PM,20.1,15.8,83,30.12,10.0,WNW,16.1,21.9,N/A,,Overcast,290,2012-12-30 00:35:00
6:55 PM,19.8,15.4,83,30.13,10.0,WNW,18.4,23.0,N/A,,Overcast,290,2012-12-30 00:55:00
7:15 PM,19.8,15.3,83,30.14,10.0,WNW,18.4,23.0,N/A,,Overcast,290,2012-12-30 01:15:00
7:35 PM,19.8,15.4,83,30.14,10.0,WNW,13.8,-,N/A,,Overcast,290,2012-12-30 01:35:00
7:55 PM,19.4,15.1,83,30.15,10.0,West,16.1,-,N/A,,Overcast,280,2012-12-30 01:55:00
8:15 PM,19.0,14.7,83,30.16,10.0,West,18.4,21.9,N/A,,Overcast,280,2012-12-30 02:15:00
8:35 PM,19.4,14.0,80,30.16,10.0,WNW,12.7,-,N/A,,Overcast,290,2012-12-30 02:35:00
8:55 PM,19.2,14.9,83,30.17,10.0,West,11.5,-,N/A,,Overcast,280,2012-12-30 02:55:00
9:15 PM,19.0,14.9,84,30.18,10.0,West,10.4,-,N/A,,Overcast,270,2012-12-30 03:15:00
9:35 PM,18.9,14.7,84,30.18,10.0,West,15.0,18.4,N/A,,Overcast,260,2012-12-30 03:35:00
9:55 PM,17.8,13.5,83,30.19,10.0,West,13.8,-,N/A,,Overcast,280,2012-12-30 03:55:00
10:15 PM,16.7,12.2,82,30.19,10.0,West,15.0,18.4,N/A,,Overcast,270,2012-12-30 04:15:00
10:35 PM,15.8,11.8,84,30.20,10.0,West,15.0,18.4,N/A,,Mostly Cloudy,270,2012-12-30 04:35:00
10:55 PM,15.8,12.0,85,30.20,10.0,West,11.5,-,N/A,,Mostly Cloudy,270,2012-12-30 04:55:00
11:15 PM,15.1,11.3,85,30.20,10.0,West,9.2,-,N/A,,Mostly Cloudy,260,2012-12-30 05:15:00
11:35 PM,14.7,11.1,86,30.20,7.0,West,9.2,-,N/A,,Clear,270,2012-12-30 05:35:00
11:55 PM,14.0,10.4,86,30.20,7.0,West,9.2,-,N/A,,Clear,270,2012-12-30 05:55:00